Voltar ao catálogo

YAOGAN 11 DEB

AtivoMilitarSSO
NORAD 38175·DEBRIS·🇨🇳 China

Lançado Sep 22, 2010 de Jiuquan Satellite Launch Center

Loading…

Próximas Passagens (próximas 24 horas)

TLE

AtualizadoSource: Space-Track

Época: Sep 13, 2026, 04:20 UTC

1 38175U 10047E   26256.18076085  .00001079  00000-0  26541-3 0  9990
2 38175  98.0913 336.7204 0165938 329.9998  29.1765 14.46336769275690

Acompanhe YAOGAN 11 DEB em tempo real com AllMySat

Download on the App Store